Location: Fours
(44.3167°N, 6.7000°E)
Time: 01:14:46
(UTC+00:00)

Cosmos 1697 Rocket - Pass Details

Date: 16 October 2021
Orbit: 834 x 842 km, 71.0° (Epoch: 02 December)

Event Time Altitude Azimuth Distance (km) Brightness Sun altitude
Rises 17:33:10 0° 202° (SSW) 3,383 6.2 -9.0°
Reaches altitude 10° 17:35:36 10° 203° (SSW) 2,452 5.5 -9.4°
Maximum altitude 17:41:14 88° 113° (ESE) 848 2.7 -10.4°
Drops below altitude 10° 17:46:55 10° 26° (NNE) 2,465 4.9 -11.4°
Sets 17:49:22 0° 26° (NNE) 3,403 5.6 -11.9°
